Location: Newark
(39.6867°N, 100.6772°W)
Time: 18:22:52
(UTC+00:00)

Vanguard 1 - Pass Details

Date: 14 October 2019
Orbit: 652 x 3831 km, 34.2° (Epoch: 11 November)

Event Time Altitude Azimuth Distance (km) Brightness Sun altitude
Rises 07:48:28 0° 280° (W) 6,418 - -53.7°
Reaches altitude 10° 07:52:13 10° 277° (W) 5,741 - -53.3°
Maximum altitude 08:11:00 57° 205° (SSW) 4,140 - -51.0°
Exits shadow 08:20:49 40° 153° (SSE) 4,860 13.2 -49.7°
Drops below altitude 10° 08:33:19 10° 134° (SE) 6,632 14.3 -47.9°
Sets 08:38:06 0° 131° (SE) 7,415 14.6 -47.2°
